TimeEST,TemperatureF,Dew PointF,Humidity,Sea Level PressureIn,VisibilityMPH,Wind Direction,Wind SpeedMPH,Gust SpeedMPH,PrecipitationIn,Events,Conditions,WindDirDegrees,DateUTC
12:51 AM,16.0,-4.0,41,30.40,10.0,WNW,11.5,-,N/A,,Clear,300,2013-01-25 05:51:00
1:51 AM,15.1,-4.0,43,30.43,10.0,WNW,10.4,23.0,N/A,,Partly Cloudy,300,2013-01-25 06:51:00
2:51 AM,14.0,-2.9,47,30.42,10.0,NW,17.3,-,N/A,,Partly Cloudy,310,2013-01-25 07:51:00
3:51 AM,14.0,-2.0,49,30.43,10.0,West,16.1,-,N/A,,Scattered Clouds,280,2013-01-25 08:51:00
4:51 AM,14.0,-0.9,52,30.42,10.0,WNW,10.4,-,N/A,,Scattered Clouds,300,2013-01-25 09:51:00
5:51 AM,14.0,-0.0,54,30.43,10.0,West,10.4,-,N/A,,Mostly Cloudy,280,2013-01-25 10:51:00
6:51 AM,14.0,-0.0,54,30.43,10.0,WNW,10.4,-,N/A,,Mostly Cloudy,300,2013-01-25 11:51:00
7:51 AM,15.1,1.0,54,30.40,10.0,NNW,11.5,-,N/A,,Overcast,330,2013-01-25 12:51:00
8:51 AM,17.1,1.0,50,30.41,10.0,NW,11.5,-,N/A,,Overcast,320,2013-01-25 13:51:00
9:51 AM,18.0,1.0,48,30.42,10.0,NW,6.9,-,N/A,,Overcast,310,2013-01-25 14:51:00
10:51 AM,21.0,1.0,42,30.40,10.0,North,6.9,-,N/A,,Overcast,350,2013-01-25 15:51:00
11:51 AM,21.9,1.0,40,30.35,10.0,Calm,Calm,-,N/A,,Overcast,0,2013-01-25 16:51:00
12:51 PM,21.9,1.0,40,30.32,10.0,Calm,Calm,-,N/A,,Overcast,0,2013-01-25 17:51:00
1:51 PM,21.9,3.0,44,30.27,10.0,SSW,6.9,-,N/A,,Overcast,210,2013-01-25 18:51:00
2:51 PM,23.0,3.9,44,30.25,10.0,SW,5.8,-,N/A,,Overcast,230,2013-01-25 19:51:00
3:51 PM,21.9,7.0,53,30.23,10.0,WSW,5.8,-,N/A,,Overcast,240,2013-01-25 20:51:00
4:51 PM,23.0,7.0,50,30.22,10.0,SW,4.6,-,N/A,,Overcast,220,2013-01-25 21:51:00
5:40 PM,21.2,12.2,68,30.20,3.0,WSW,8.1,-,0.00,Snow,Light Snow,240,2013-01-25 22:40:00
5:51 PM,21.0,12.9,71,30.18,3.0,WSW,10.4,-,0.00,Snow,Light Snow,250,2013-01-25 22:51:00
6:08 PM,19.4,14.0,80,30.17,2.5,WSW,6.9,-,0.00,Snow,Light Snow,250,2013-01-25 23:08:00
6:51 PM,19.9,16.0,85,30.15,2.5,West,6.9,-,0.01,Snow,Light Snow,270,2013-01-25 23:51:00
7:25 PM,21.2,17.6,86,30.15,0.5,West,9.2,-,0.01,Snow,Light Snow,260,2013-01-26 00:25:00
7:33 PM,21.2,17.6,86,30.14,0.5,WSW,8.1,-,0.01,Snow,Light Snow,250,2013-01-26 00:33:00
7:39 PM,21.2,17.6,86,30.14,1.5,WSW,6.9,-,0.02,Snow,Light Snow,250,2013-01-26 00:39:00
7:51 PM,21.0,17.1,85,30.14,1.5,WSW,8.1,-,0.02,Snow,Light Snow,250,2013-01-26 00:51:00
8:07 PM,21.2,17.6,86,30.13,1.5,WSW,11.5,-,0.00,Snow,Light Snow,250,2013-01-26 01:07:00
8:31 PM,21.2,17.6,86,30.13,1.0,SW,12.7,-,0.01,Snow,Light Snow,230,2013-01-26 01:31:00
8:51 PM,21.0,17.1,85,30.12,1.0,WSW,12.7,-,0.02,Snow,Light Snow,250,2013-01-26 01:51:00
8:57 PM,21.2,17.6,86,30.12,3.0,WSW,11.5,-,0.00,Snow,Light Snow,250,2013-01-26 01:57:00
9:35 PM,19.4,15.8,86,30.11,6.0,West,10.4,-,0.00,Snow,Light Snow,260,2013-01-26 02:35:00
9:51 PM,19.9,15.1,81,30.10,9.0,West,11.5,-,0.00,,Scattered Clouds,270,2013-01-26 02:51:00
10:51 PM,19.9,12.9,74,30.09,10.0,West,10.4,-,N/A,,Scattered Clouds,280,2013-01-26 03:51:00
11:51 PM,19.0,12.0,74,30.09,10.0,West,10.4,-,N/A,,Scattered Clouds,280,2013-01-26 04:51:00